Wind_Speed
15 17 19 20 21 22 21 21 20 20 19 20 21 22 23 24 25 26 28 29 30 31 32 33 34 35 35 35 35 35 35 36 37 38 39 40 40 39 39 38 38 38
16 18 20 21 22 23 23 22 21 21 21 22 23 23 24 25 27 28 29 30 31 32 34 35 36 37 37 37 37 36 37 37 38 40 41 42 42 42 41 40 39 39
17 19 21 23 23 24 24 23 23 22 22 24 24 25 25 27 28 29 30 31 32 33 34 35 37 38 38 39 39 39 39 39 40 41 42 43 43 43 43 42 41 40
19 20 23 24 24 25 25 25 25 25 25 26 26 26 27 28 30 31 32 33 34 34 35 36 37 38 39 40 41 40 40 41 41 42 43 44 44 45 45 43 42 41
21 22 24 25 26 26 26 26 27 27 27 28 29 28 29 30 31 33 34 35 35 36 36 37 37 38 39 40 41 42 42 42 42 43 43 44 45 46 45 43 42 42
24 24 25 26 27 28 28 28 29 29 30 31 31 31 31 32 33 34 35 36 37 37 37 38 38 38 39 39 41 42 43 43 43 43 44 44 45 45 44 43 43 43
26 26 26 27 28 29 29 30 31 31 32 33 33 33 33 34 35 35 36 38 39 39 39 39 39 39 40 40 41 41 42 44 44 44 45 45 46 46 45 45 45 44
28 28 29 28 29 30 30 32 33 33 34 35 35 35 36 36 37 38 38 40 40 41 42 42 42 42 42 42 42 43 43 44 45 45 45 46 47 47 47 47 46 46
32 31 31 31 31 32 33 34 35 36 37 37 37 37 38 38 39 40 41 42 43 43 44 45 45 44 45 45 45 45 45 46 46 46 47 48 49 49 49 49 48 49
34 34 34 34 34 34 35 36 37 38 39 39 39 39 40 40 41 42 43 44 45 46 46 47 47 47 48 48 48 48 48 49 49 49 49 50 51 51 51 51 51 52
36 37 37 37 36 36 37 38 39 40 41 41 41 41 41 42 43 44 45 46 48 49 49 49 50 50 51 51 51 51 51 51 51 51 51 52 52 53 53 53 53 53
38 39 39 39 38 38 39 40 41 42 43 44 43 43 44 45 46 46 47 49 50 51 51 52 53 53 54 54 54 54 53 52 53 53 53 54 54 54 54 54 55 55
40 41 41 41 41 41 41 43 43 44 45 46 45 45 46 47 48 48 49 51 52 53 54 55 55 55 56 57 57 57 56 55 55 55 55 56 56 56 56 56 56 57
42 42 43 43 43 43 44 44 45 46 47 47 47 47 49 50 50 51 52 53 54 55 56 56 56 56 58 60 60 60 59 58 58 57 57 58 59 59 59 59 58 59
44 44 45 45 45 45 46 46 47 48 49 49 49 49 51 52 52 53 54 55 56 57 58 58 58 59 61 62 62 62 62 61 61 61 61 61 62 62 62 62 61 61
46 47 48 48 47 47 47 48 49 50 51 51 51 51 52 53 55 56 57 58 59 59 60 61 62 62 63 64 64 65 65 64 64 65 65 65 65 65 65 65 65 64
50 50 50 49 49 49 49 50 51 52 53 54 53 53 54 55 57 58 59 60 61 61 62 63 64 64 64 65 66 68 68 68 68 68 68 68 68 68 68 68 68 67
51 52 51 51 51 51 51 52 53 54 55 55 55 55 56 57 58 60 60 61 62 63 64 65 66 65 64 66 69 71 71 71 71 71 71 71 71 71 71 70 70 70
52 53 53 53 53 53 53 53 55 56 57 57 58 58 58 59 60 61 62 62 63 64 65 67 67 67 67 69 72 74 73 73 73 73 73 74 74 74 73 73 72 72
53 55 56 55 54 54 54 55 56 57 58 60 61 61 61 61 62 63 63 63 64 65 67 68 69 69 71 73 75 75 75 74 74 74 75 76 76 76 75 75 74 73
53 54 55 55 54 54 55 56 58 60 61 62 63 64 64 64 65 65 65 65 66 67 69 70 71 72 73 74 75 75 75 75 75 76 77 77 78 78 77 76 74 73
53 54 55 56 56 56 58 59 61 63 64 65 66 67 67 67 68 67 67 67 68 69 70 71 72 74 74 74 73 74 75 76 77 78 79 79 78 78 77 76 75 75
56 56 57 58 59 60 62 63 64 65 66 67 69 69 70 70 70 70 69 69 70 71 72 72 73 74 74 72 72 74 77 78 79 80 80 80 79 78 77 77 76 76
58 58 60 61 63 64 66 67 67 68 69 70 71 71 72 73 72 72 71 71 72 73 73 73 73 74 74 72 73 76 79 81 82 82 81 80 79 79 78 77 77 76
61 62 63 66 67 68 70 70 71 72 72 73 73 74 75 75 75 74 73 73 74 75 75 75 74 75 75 75 76 79 81 82 83 83 82 80 79 79 78 77 77 77
64 67 68 70 72 73 73 73 74 75 75 75 75 75 76 77 77 76 75 75 76 77 78 78 77 77 77 78 79 81 81 83 83 83 82 81 80 79 78 78 77 77
Wind_Direction
294 300 303 305 308 309 308 308 310 314 315 313 312 314 317 319 321 324 327 328 330 331 333 334 335 336 338 339 339 338 338 338 339 340 340 339 338 337 337 336 334 332
291 296 299 302 305 307 306 307 309 312 313 312 311 313 316 318 319 322 324 326 327 329 332 334 335 335 336 337 337 337 337 337 339 339 339 339 338 337 336 335 334 332
287 292 295 298 303 304 304 305 307 309 311 310 310 312 315 316 318 320 322 324 325 328 330 332 333 333 334 335 335 335 336 337 338 338 338 338 338 337 335 335 334 333
283 288 290 295 300 301 302 304 305 307 309 308 308 311 314 315 317 318 320 322 323 326 328 330 331 332 333 333 333 334 334 335 336 337 337 337 337 336 335 334 333 332
280 283 287 291 296 299 301 303 304 306 307 307 308 310 312 314 315 317 318 320 321 323 325 327 329 330 331 331 332 332 333 333 334 335 335 336 336 335 334 334 332 332
279 281 284 288 292 296 299 302 303 305 306 306 307 309 310 312 313 315 317 318 319 321 323 325 327 328 329 330 330 331 331 332 331 332 334 334 335 335 335 333 331 331
278 280 282 285 290 294 298 300 301 303 304 305 306 308 309 311 312 314 315 316 317 319 320 322 324 326 327 328 329 330 330 330 330 330 332 333 334 334 333 331 329 330
277 278 280 283 287 292 296 298 299 301 302 304 305 307 308 310 311 313 314 314 316 318 319 320 323 325 326 327 328 329 329 329 328 329 331 331 332 332 331 329 329 329
274 277 279 282 285 289 293 296 297 298 300 302 304 305 307 308 310 311 312 313 315 316 318 320 322 324 325 326 326 327 328 328 327 328 329 330 331 331 330 329 328 327
271 276 278 280 284 287 290 293 295 296 298 300 302 303 305 307 309 310 311 313 314 315 317 319 321 323 324 324 325 326 327 327 327 328 329 329 329 330 329 328 326 325
272 276 278 281 284 286 288 290 293 295 296 298 300 302 304 306 308 310 311 312 313 314 316 318 321 322 322 323 324 325 325 326 326 326 327 327 327 327 326 326 325 324
274 276 279 282 284 285 287 289 291 293 294 296 299 301 303 305 307 310 311 312 313 314 315 317 319 320 321 321 322 323 323 324 324 324 324 324 324 324 324 324 324 323
275 277 279 281 282 284 285 287 289 291 293 295 298 301 303 304 306 309 311 312 313 314 314 315 315 317 318 320 320 320 321 322 322 322 322 321 322 322 322 323 323 322
273 275 277 279 281 282 284 286 288 290 292 295 298 301 302 304 306 309 310 311 312 313 314 314 313 314 316 318 318 318 318 319 319 319 319 320 320 321 322 322 322 322
273 274 276 277 279 281 283 286 288 290 292 295 298 301 302 304 307 309 310 311 312 313 313 313 313 313 314 315 315 316 316 317 317 318 318 319 320 321 321 321 321 321
273 274 275 277 279 281 284 286 288 291 293 296 298 300 302 305 307 308 309 311 312 313 313 312 312 312 312 313 313 313 314 315 316 317 318 319 320 320 320 320 321 321
273 274 275 277 280 282 285 287 290 292 294 296 298 300 303 305 306 307 308 309 311 311 311 311 310 310 310 311 312 312 313 314 315 317 318 319 319 319 320 320 321 321
273 274 276 278 281 284 286 288 290 292 293 295 298 300 301 303 304 305 306 308 309 309 309 309 309 308 307 309 311 312 313 314 315 316 317 318 318 319 320 320 321 321
272 274 277 279 282 285 287 288 290 291 293 295 297 299 300 301 301 303 304 305 306 307 306 307 308 307 306 308 310 311 312 313 314 315 316 316 317 318 319 320 321 321
273 275 277 280 282 285 287 288 290 291 293 295 296 297 298 299 300 301 302 303 304 305 304 305 306 306 305 306 307 309 310 311 312 314 315 316 317 318 319 320 320 320
273 275 278 281 283 285 287 289 290 291 292 293 294 295 296 297 298 299 300 301 303 303 303 303 305 305 305 305 305 306 308 310 311 313 314 315 317 318 318 319 319 319
274 277 280 282 284 286 288 288 289 290 291 292 292 293 295 295 295 297 298 300 301 301 301 302 304 304 304 304 304 305 308 309 311 312 313 315 316 317 318 319 319 319
276 278 281 283 284 286 286 287 287 288 289 290 290 291 292 292 293 294 296 298 298 299 300 301 302 303 303 302 303 305 308 309 310 311 313 314 315 316 317 318 318 318
278 280 282 283 283 284 284 284 285 286 286 287 288 288 289 290 291 293 295 296 297 298 298 300 301 302 301 301 302 305 307 309 310 312 313 314 315 316 316 317 317 317
278 279 280 280 280 280 281 282 283 283 284 285 286 287 288 289 291 293 295 296 297 297 297 298 299 299 299 300 301 303 305 308 310 312 313 313 314 315 316 316 316 316
276 276 276 276 276 277 278 279 281 282 283 283 285 286 288 289 291 292 294 294 295 295 296 296 297 297 298 299 299 301 304 308 310 311 312 312 313 314 315 315 315 315
Height
10985 10985 10984 10984 10984 10983 10983 10983 10983 10983 10982 10980 10979 10978 10977 10975 10974 10973 10971 10969 10968 10966 10964 10962 10961 10959 10958 10956 10954 10952 10950 10948 10946 10944 10941 10939 10936 10934 10932 10929 10926 10923
10983 10982 10982 10981 10981 10981 10981 10981 10981 10981 10980 10978 10977 10976 10975 10973 10972 10971 10969 10968 10966 10964 10962 10960 10958 10956 10954 10953 10951 10950 10948 10945 10943 10940 10938 10935 10933 10930 10928 10926 10923 10920
10980 10979 10978 10978 10978 10978 10978 10978 10979 10978 10978 10976 10975 10974 10972 10971 10969 10968 10967 10966 10964 10962 10961 10959 10956 10954 10952 10950 10948 10946 10944 10942 10940 10938 10935 10933 10930 10927 10925 10922 10920 10917
10977 10976 10975 10975 10975 10975 10976 10976 10976 10976 10975 10973 10972 10971 10970 10968 10967 10965 10964 10963 10962 10960 10959 10957 10955 10953 10950 10947 10945 10943 10941 10939 10937 10935 10933 10930 10927 10925 10922 10919 10916 10914
10974 10973 10972 10972 10972 10972 10973 10973 10973 10973 10972 10970 10969 10968 10967 10966 10964 10963 10961 10960 10959 10958 10957 10955 10954 10951 10949 10946 10943 10940 10938 10936 10934 10932 10930 10928 10925 10922 10919 10916 10913 10911
10971 10970 10969 10968 10968 10969 10969 10970 10970 10969 10968 10967 10966 10966 10964 10963 10962 10960 10959 10957 10956 10955 10954 10952 10951 10949 10947 10945 10942 10939 10936 10933 10931 10929 10927 10925 10922 10919 10916 10913 10911 10908
10968 10967 10966 10965 10965 10965 10966 10966 10966 10966 10965 10964 10963 10962 10961 10960 10959 10957 10956 10954 10952 10951 10950 10949 10948 10947 10945 10943 10941 10938 10935 10931 10928 10926 10924 10921 10919 10916 10913 10910 10908 10905
10964 10963 10962 10962 10961 10962 10962 10963 10963 10963 10962 10961 10960 10959 10958 10956 10955 10953 10952 10950 10948 10947 10945 10945 10944 10943 10942 10940 10938 10935 10933 10929 10926 10923 10921 10918 10915 10913 10910 10907 10904 10901
10960 10960 10959 10958 10958 10958 10959 10959 10959 10959 10958 10958 10957 10956 10954 10953 10951 10949 10948 10946 10944 10942 10941 10940 10939 10938 10937 10935 10933 10931 10928 10926 10923 10920 10917 10914 10911 10909 10906 10903 10900 10898
10956 10956 10955 10955 10955 10955 10955 10955 10955 10955 10954 10954 10953 10952 10951 10949 10947 10946 10944 10942 10940 10938 10936 10935 10934 10932 10931 10929 10927 10925 10923 10920 10917 10914 10912 10909 10906 10904 10901 10899 10896 10894
10953 10952 10952 10952 10951 10951 10951 10951 10951 10951 10950 10950 10949 10949 10947 10945 10944 10942 10940 10938 10935 10933 10932 10930 10928 10926 10925 10923 10921 10920 10918 10915 10912 10909 10907 10905 10903 10900 10898 10895 10892 10889
10949 10948 10948 10948 10948 10948 10947 10947 10947 10947 10946 10946 10946 10945 10943 10941 10940 10939 10937 10934 10931 10929 10927 10924 10922 10920 10918 10917 10916 10914 10913 10910 10908 10905 10903 10901 10899 10897 10894 10892 10889 10885
10945 10945 10945 10945 10944 10944 10943 10943 10943 10943 10942 10942 10942 10941 10939 10937 10936 10935 10933 10931 10928 10925 10923 10920 10918 10916 10914 10912 10910 10909 10907 10905 10903 10901 10899 10897 10895 10892 10890 10887 10884 10881
10941 10941 10941 10941 10941 10940 10940 10939 10939 10939 10938 10938 10938 10937 10935 10933 10932 10931 10930 10928 10925 10922 10920 10917 10914 10912 10910 10907 10905 10903 10902 10900 10898 10897 10895 10892 10889 10887 10884 10882 10879 10877
10937 10938 10937 10937 10937 10937 10936 10935 10935 10935 10934 10934 10934 10933 10931 10929 10928 10926 10925 10923 10921 10918 10916 10913 10910 10908 10905 10903 10900 10898 10896 10895 10893 10891 10889 10887 10884 10881 10878 10875 10873 10872
10933 10933 10933 10933 10933 10933 10932 10932 10931 10931 10930 10930 10930 10929 10927 10925 10923 10921 10920 10918 10916 10913 10911 10908 10905 10903 10900 10898 10895 10892 10890 10889 10887 10884 10882 10880 10878 10875 10872 10869 10866 10864
10928 10928 10928 10929 10929 10929 10929 10928 10928 10927 10926 10926 10925 10925 10923 10921 10918 10916 10915 10913 10911 10908 10905 10902 10900 10898 10895 10892 10889 10886 10884 10882 10880 10877 10875 10872 10870 10868 10865 10862 10858 10855
10924 10923 10924 10924 10924 10924 10924 10924 10923 10923 10921 10921 10921 10920 10919 10918 10915 10912 10910 10908 10906 10903 10899 10896 10894 10892 10889 10886 10882 10879 10877 10874 10872 10870 10867 10865 10863 10861 10858 10855 10851 10847
10919 10919 10919 10919 10920 10920 10920 10920 10919 10917 10916 10915 10915 10914 10914 10913 10910 10908 10906 10903 10902 10899 10894 10891 10888 10885 10882 10879 10875 10872 10870 10867 10865 10864 10861 10857 10855 10853 10850 10847 10843 10839
10915 10914 10913 10914 10915 10916 10916 10914 10913 10912 10910 10909 10908 10907 10907 10906 10904 10902 10900 10897 10896 10893 10889 10885 10883 10879 10876 10873 10869 10865 10863 10861 10859 10858 10855 10851 10848 10845 10842 10839 10835 10831
10911 10909 10909 10909 10910 10911 10910 10909 10908 10906 10904 10902 10901 10899 10898 10897 10896 10894 10893 10891 10889 10885 10882 10879 10876 10873 10869 10866 10862 10859 10857 10855 10853 10851 10848 10844 10841 10838 10835 10832 10828 10824
10906 10905 10904 10904 10904 10905 10904 10903 10901 10899 10897 10895 10893 10892 10890 10889 10887 10886 10885 10884 10881 10878 10875 10872 10869 10866 10863 10860 10856 10853 10850 10848 10846 10844 10841 10838 10834 10831 10828 10825 10821 10817
10899 10899 10898 10897 10897 10897 10895 10894 10893 10891 10889 10887 10885 10884 10882 10881 10880 10879 10879 10878 10875 10871 10868 10865 10863 10859 10856 10853 10850 10846 10843 10841 10839 10838 10835 10831 10828 10824 10820 10817 10813 10809
10890 10891 10890 10888 10887 10886 10885 10884 10883 10882 10881 10879 10877 10876 10874 10873 10873 10873 10873 10871 10868 10864 10861 10859 10857 10853 10849 10846 10844 10840 10836 10833 10831 10830 10828 10824 10820 10817 10813 10809 10806 10801
10880 10880 10879 10877 10875 10874 10873 10873 10873 10872 10872 10871 10869 10868 10866 10866 10866 10866 10865 10864 10861 10857 10855 10853 10851 10847 10843 10841 10838 10834 10830 10827 10824 10822 10820 10817 10813 10809 10805 10801 10797 10793
10869 10867 10866 10864 10863 10862 10862 10862 10862 10862 10863 10862 10861 10860 10858 10858 10858 10858 10857 10856 10853 10850 10848 10847 10845 10841 10838 10835 10831 10827 10824 10821 10817 10814 10811 10808 10805 10801 10798 10793 10789 10785